Regional Weather Roundup
Issued by NWS Newport/Morehead, NC

Current Version | Previous Version | Graphics & Text | Print | Product List | Glossary Off
Versions: 1 2 3 4 5 6 7 8 9 10 11 12 13 14 15 16 17 18 19 20 21 22 23 24 25 26 27 28 29 30 31 32 33 34 35 36 37 38 39 40 41 42 43 44 45 46 47 48 49 50
910 ASUS42 KMHX 241525 RWRMHX WEATHER ROUNDUP FOR EASTERN NORTH CAROLINA NATIONAL WEATHER SERVICE NEWPORT/MOREHEAD CITY NC 1100 AM EDT SUN SEP 24 2017 NOTE: "FAIR" INDICATES FEW OR NO CLOUDS BELOW 12,000 FEET WITH NO SIGNIFICANT WEATHER AND/OR OBSTRUCTIONS TO VISIBILITY NCZ015>017-031-032-045>047-102-103-241600- NORTH COAST CITY SKY/WX TMP DP RH WIND PRES REMARKS EDENTON PTSUNNY 79 70 73 CALM 30.07R ELIZABETH CITY MOSUNNY 81 70 69 N7 30.05F KITTY HAWK SUNNY 76 66 72 CALM 30.04S MANTEO SUNNY 78 68 72 NE9 30.05S $$ NCZ045>047-081-094-103-104-241600- CENTRAL COAST CITY SKY/WX TMP DP RH WIND PRES REMARKS FRISCO SUNNY 79 69 71 NE12G22 30.03S $$ NCZ095-097-098-100-101-241600- SOUTHERN COAST CITY SKY/WX TMP DP RH WIND PRES REMARKS BEAUFORT SUNNY 80 71 74 NE13G23 30.02S CEDAR ISLAND NOT AVBL JACKSONVILLE SUNNY 80 69 69 NE15 30.04R PINEY ISLAND N/A N/A N/A N/A NE17G25 30.03S WILMINGTON MOSUNNY 82 68 62 N17 30.02S $$ NCZ011>013-027>030-043-044-078>080-089-090>093-098-241600- COASTAL PLAIN CITY SKY/WX TMP DP RH WIND PRES REMARKS AHOSKIE SUNNY 78 65 64 N6 30.07S CLINTON SUNNY 80 69 68 NE13 30.07S ELIZABETHTOWN NOT AVBL GOLDSBORO SUNNY 79 73 83 NE13 30.06S GREENVILLE SUNNY 79 68 69 NE5 30.08S HAVELOCK SUNNY 82 68 62 NE21G26 30.04S KENANSVILLE SUNNY 79 68 69 N12G18 30.07S KINSTON MOSUNNY 79 68 69 NE9 30.08S NEW BERN SUNNY 80 69 69 NE12 30.06S RICHLANDS SUNNY 79 69 71 N13 30.06S ROCKY MOUNT SUNNY 79 68 69 N8 30.08F WASHINGTON SUNNY 80 69 69 N8 30.07S WHITEVILLE MOSUNNY 79 68 68 NE8 30.04S $$ AMZ130-135-150-152-154-156-158-170-250-252-270-ANZ085-086-088-633-658-670-241600- MARINE OBSERVATIONS STATION/POSITION TIME TEMP WIND PRES WAVE SWELL AIR SEA DIR/SP/G HT/PER HT/PER (UTC) (F) (DEG/KT/KT) (MB) (FT/S) (FT/S) CHESAPEAKE LIGHT NOT AVBL 64 E VA BEACH 1450 70 70 50/ 4/ 6 1017.9 8/14 8/14 DUCK 1500 74 76 20/ 10/ 11 1017.3 2 E DUCK 1500 76 N/A 5/13 3/13 OREGON INLET 1500 75 76 40/ 8/ 13 1017.3 13E OREGON INLT 1448 75 N/A 6/13 7/13 HATTERAS CG 1500 76 77 40/ 13/ 21 1016.8 DIAMOND BUOY 1450 74 78 30/ 17/ 21 1016.0 8/14 7/14 CAPE LOOKOUT 1500 77 40/ 23/ 26 1016.1 BEAUFORT LAB 1500 78 76 30/ 14/ 21 1016.1 30 SE NEW RVR IN 1508 78 50/ 21/ 25 1015.5 30 SE NEW RVR IN NOT AVBL 27 SE WRIGHTSVLE 1508 78 80 70/ 19/ 25 1015.6 5 SE WRIGHTSVLE 1508 77 78 40/ 14/ 23 1016.2 225 S CAPE HAT 1450 79 79 40/ 25/ 31 1009.2 17/15 15/15 41 SE CHARLESTON 1510 79 81 30/ 19/ 23 1014.5 $$

USA.gov is the U.S. government's official web portal to all federal, state and local government web resources and services.